Weather in Mykolaivka

Ukraine / Dnipropetrovsk Region     48°32′41″N   34°42′15″E
temp.,
°C
wind,
m/s
gust,
m/s
humid.,
%
clouds,
%
prec.,
mm/h
press.,
hPa
HPBL,
m
24 january, mon
mon2423:00−6n61388100 0.0 1023449
02:00−6n71593100 0.4 1023537
05:00−6nne81590100 0.6 1022686
08:00−6nne71494100 1.3 1023592
11:00−5nne61194100 1.5 1024562
14:00−3nne71193100 2.6 1024655
17:00−4nne61095100 0.4 1024662
20:00−5nne5109299 0.8 1025546
25 january, tue
tue2523:00−7nne599493 0.1 1025396
02:00−9nne489589 0.1 1025266
05:00−9n4795100 0.0 1024269
08:00−9n469494 0.2 1024247
11:00−7nne3490100 0.1 1024330
14:00−6n3488100 0.3 1023443
17:00−7n249792 0.1 102291
20:00−8nnw2397100 0.2 102283
26 january, wed
wed2623:00−9nnw119899 0.1 102118
02:00−11wnw1199100 0.1 102015
05:00−11wsw1198100 0.0 101929
08:00−10ssw2296100 0.1 102066
11:00−6ssw2287100 0.0 1019307
14:00−5sw2282100 0.1 1019425
17:00−8sw119297 0.0 102010
20:00−9sw119581 0.0 102112
27 january, thu
thu2723:00−10sw119663 0.0 102111
02:00−11wsw119883 0.0 102115
05:00−11nw119980 0.1 102112
08:00−10wnw119776 0.1 102145
11:00−6w2288100 0.0 1021305
14:00−5wsw348399 0.0 1020512
17:00−9ssw23945 0.0 101929
20:00−9ssw489520 0.0 1019133
28 january, fri
fri2823:00−8ssw5119489 0.0 1017258
02:00−6ssw5129595 0.1 1016277
05:00−4ssw61395100 0.1 1014375
08:00−2ssw71594100 0.8 1013554
11:000sw81598100 1.0 1012725
14:00+1sw71498100 1.6 1011657
17:000wsw61295100 0.2 1011531
20:00+1wsw6129199 0.2 1011629